LEMUR-2-SPIROVISION (42755 NORAD) Tracking and Keplerian Element Data

This shows tracking and keplerian element data for the satellite.

Feedback or suggestion? Click here.




ElementValue
Catalog42755
NameLEMUR-2-SPIROVISION
Epoch Orbit3831
Epoch Day46.13837142
Epoch Year2018
RAAN315.6867
Inclination51.6419
Eccentricity0.0010786
Argument of Perigee130.9427
Mean Anonmoly229.2488
Mean Motion15.28951361
Decay Rate3.039E-05
L11 42755U 17019E 18046.13837142 .00003039 00000-0 11895-3 0 9991
L22 42755 51.6419 315.6867 0010786 130.9427 229.2488 15.28951361 38316

Live tracking and technical data element details for LEMUR-2-SPIROVISION (NORAD 42755). LEMUR-2-SPIROVISION can be tracked NOW for your location showing map with azimuth and elevation plus other details from your city location.

Track the satellite on the map from your city or location and see movement details for azimuth, elevation, latitude, longitude, range, height, and movement on the map or in text.







IsCatalogInMostPopularTable: catalog: 42755, numindb: 134
Update: records affected: 1



GetName: 42755 LEMUR-2-SPIROVISION

Hit Count: updated at: Mon, 19 Nov 2018 13:48:59 GMT